Theta_e
324 323 323 323 323 322 320 318 315 314 313 311 311 312 311 311 312 316 317 319 325 333 344 350 350 353 350 346 345 353 366 347 337 337 336 335 342 344 343 345 343 343 342 340 341
324 324 324 324 323 322 322 320 317 315 313 311 312 312 311 310 315 319 318 323 326 321 342 353 356 353 359 355 351 359 360 349 336 335 337 336 339 341 345 344 344 343 340 341 344
325 323 323 323 322 321 322 320 318 316 313 311 312 311 310 310 330 327 319 323 318 321 332 345 348 352 359 352 354 355 358 350 338 337 338 338 339 341 344 346 343 344 342 340 340
322 320 322 323 322 322 322 321 319 316 312 311 312 311 309 316 331 327 323 321 317 327 336 346 349 351 356 359 355 359 355 349 345 341 339 338 339 341 342 343 341 341 340 339 339
319 319 320 321 322 321 319 317 315 313 311 312 312 310 316 325 320 328 320 316 323 337 347 348 345 351 354 352 352 357 354 346 342 338 336 338 338 340 340 339 339 339 339 338 339
317 318 319 321 322 318 315 313 312 312 312 312 312 310 321 325 327 322 318 324 343 347 345 340 342 347 348 353 353 352 353 348 348 341 340 339 339 338 338 337 338 339 338 337 338
316 317 318 320 321 317 315 314 312 312 313 312 312 316 323 325 326 319 323 324 334 338 337 338 333 341 349 354 353 353 355 352 351 349 350 340 340 340 338 338 339 339 339 339 337
317 317 318 320 321 318 318 316 314 313 313 312 312 321 319 329 326 324 328 329 328 333 336 337 330 334 347 351 354 354 355 356 352 352 352 345 351 340 338 339 341 342 341 342 338
315 316 316 319 321 318 318 315 314 313 313 312 316 323 322 327 324 326 328 329 330 329 329 328 329 339 349 355 356 353 357 357 354 353 355 352 355 341 338 340 341 341 343 342 339
311 314 316 318 321 319 319 321 319 314 317 320 323 324 326 325 327 328 327 329 325 321 322 325 327 334 338 350 357 355 355 357 357 354 350 352 356 352 340 340 341 340 343 342 340
312 312 314 318 320 319 318 321 321 321 322 318 321 325 327 327 326 325 325 324 321 319 320 320 327 332 333 349 350 351 357 356 353 355 351 346 355 353 343 341 341 339 342 343 341
310 312 313 317 322 319 318 320 326 322 319 321 320 323 324 324 324 323 324 321 320 318 319 319 322 325 330 344 351 353 354 356 356 354 344 348 353 353 352 343 342 341 340 344 341
309 310 313 317 323 320 318 321 326 325 319 321 322 320 321 322 323 323 319 318 319 318 319 320 323 327 330 349 353 351 353 353 356 354 350 350 354 352 351 349 341 340 339 343 343
308 309 312 316 326 326 323 326 326 323 319 323 324 323 322 320 321 322 320 319 320 318 318 319 320 323 325 333 332 334 348 352 353 353 356 349 360 354 351 354 346 340 338 341 344
308 309 311 312 325 326 326 328 327 321 332 328 322 323 319 321 322 322 322 321 319 319 319 320 323 323 328 329 329 327 328 334 345 352 348 352 355 347 349 356 352 344 340 340 342
308 309 310 315 317 327 327 326 324 322 331 326 322 321 321 321 323 322 321 321 321 321 322 321 323 324 324 326 327 327 323 320 322 325 327 336 353 347 356 354 354 348 346 344 340
309 309 312 316 323 326 328 321 321 324 326 324 322 320 320 321 322 323 323 322 321 324 322 322 323 322 324 324 321 321 317 318 322 324 327 327 343 340 351 351 352 349 346 345 343
310 310 312 317 325 327 325 321 330 329 331 326 323 319 321 320 321 322 323 322 321 321 320 323 323 323 324 321 321 320 317 317 322 322 325 320 339 353 350 350 349 347 346 343 347
309 312 319 327 330 326 319 325 327 330 329 329 326 322 321 321 322 321 321 321 322 319 322 321 323 324 324 323 321 320 320 316 318 317 317 320 348 350 347 347 349 344 345 346 347
311 317 321 329 329 324 320 325 327 327 327 327 329 326 326 325 322 321 321 321 324 321 319 321 322 321 325 322 320 319 317 320 314 321 321 320 352 352 352 348 345 346 348 348 346
318 315 324 330 329 318 322 322 326 326 327 327 327 327 326 327 327 328 323 323 323 323 320 319 320 324 325 323 320 319 318 316 315 316 319 320 321 333 349 347 347 348 347 348 347
311 322 325 321 322 319 322 326 324 325 323 324 326 326 325 325 325 326 329 329 328 326 322 319 319 324 323 322 319 317 318 315 317 318 318 319 323 324 343 348 348 345 345 343 344
309 312 322 323 322 320 321 326 326 325 326 324 326 326 326 327 327 326 327 327 327 327 326 321 319 323 323 321 321 322 320 316 314 313 317 318 320 340 343 346 346 344 343 340 341
311 319 312 312 314 319 319 322 319 321 325 322 324 322 323 325 324 328 329 330 330 330 342 324 316 320 325 322 321 324 321 319 316 316 318 318 321 350 345 345 344 343 343 344 343
312 315 318 316 316 316 316 317 317 317 320 318 320 322 322 327 327 330 331 330 330 333 328 319 319 319 320 322 323 325 325 324 320 318 320 322 324 344 348 346 345 348 352 357 358
315 315 312 316 316 317 317 317 320 320 317 318 319 322 327 330 332 333 330 329 331 328 327 324 328 321 321 322 323 324 322 323 323 322 319 321 321 325 341 349 352 355 356 362 362
315 316 313 315 316 316 317 319 320 320 318 320 319 326 329 330 329 328 325 324 326 330 329 327 329 328 328 320 322 321 321 322 323 325 322 322 320 323 346 353 352 354 356 361 362
Wind_Speed
15 15 15 15 14 13 11 11 9 9 9 9 9 10 10 11 9 6 4 3 2 5 10 25 27 21 7 5 5 2 3 2 5 9 4 9 11 6 11 19 11 5 10 9 27
16 16 17 16 14 13 12 11 9 9 8 8 8 8 9 11 7 8 5 5 5 2 6 14 17 21 3 3 2 2 3 4 6 7 9 8 16 14 10 16 16 15 10 19 32
17 19 18 17 16 13 12 10 9 8 7 7 7 8 7 8 2 6 8 10 7 6 6 4 7 12 8 6 2 3 4 10 8 6 12 9 10 8 19 15 22 21 16 11 22
19 21 20 18 16 14 12 11 9 7 5 5 6 7 7 2 4 3 6 11 8 7 4 4 3 3 5 0 5 4 9 10 5 9 11 9 12 7 16 13 18 18 17 11 11
21 23 21 20 17 15 12 9 6 4 4 3 4 6 2 2 6 4 7 9 8 7 6 2 2 5 5 3 7 1 11 16 11 8 9 13 9 11 15 16 16 16 15 14 14
23 26 25 23 18 13 10 6 3 2 2 1 3 4 2 2 3 4 9 9 6 8 1 1 3 2 7 3 3 3 8 11 10 14 15 19 14 9 12 14 15 15 15 13 15
24 26 27 25 17 12 8 5 3 1 1 1 2 2 1 8 4 8 9 9 10 7 2 6 6 3 7 4 5 4 2 7 13 9 6 14 6 6 14 14 13 12 11 11 10
25 26 28 26 18 11 7 5 3 2 1 0 0 2 5 3 9 10 9 5 10 12 15 19 13 3 5 3 6 4 5 4 7 9 8 7 2 8 10 14 11 11 10 8 8
27 26 28 25 19 10 6 4 2 1 1 1 1 1 7 1 10 12 12 7 12 16 18 17 2 4 3 8 4 6 4 2 3 5 4 6 5 9 9 12 11 9 8 10 9
29 27 27 24 20 9 4 3 2 1 1 0 3 3 5 5 7 14 16 17 5 3 4 3 3 3 3 3 4 6 6 4 5 5 1 4 6 8 13 11 12 8 10 14 11
29 29 27 23 21 9 4 1 4 2 3 8 5 4 4 5 8 6 13 6 1 4 2 3 3 7 12 13 6 8 1 9 4 1 1 6 3 7 19 13 12 8 11 13 13
30 29 28 24 17 6 4 2 6 1 6 10 13 7 15 12 3 5 14 5 3 3 3 6 6 11 5 5 15 14 6 5 3 11 3 1 9 9 10 15 15 15 13 15 12
31 30 28 26 9 3 4 11 11 15 1 7 7 5 5 10 7 9 11 6 3 3 5 6 10 9 6 7 14 7 12 6 1 7 4 3 6 4 4 5 13 14 15 15 19
32 30 27 27 3 11 7 14 16 6 4 6 4 6 5 6 3 10 15 7 2 10 7 6 8 8 9 7 11 8 14 10 10 8 6 8 4 4 8 6 13 14 15 16 17
32 30 24 19 10 5 12 21 22 3 3 3 4 4 8 8 2 2 19 3 7 6 6 9 6 7 5 6 3 7 10 8 10 10 4 7 2 7 8 7 10 16 14 13 18
35 28 25 8 9 6 17 18 6 5 3 3 6 6 7 2 2 4 6 0 3 4 2 9 4 4 7 5 4 1 5 8 3 4 2 6 9 6 9 18 7 16 13 14 14
36 27 18 8 4 9 13 5 5 3 6 2 4 6 6 5 3 7 8 6 5 3 5 9 9 6 4 4 5 7 7 3 4 3 6 1 5 9 9 16 18 21 26 24 14
35 23 12 13 6 3 6 5 2 4 4 4 1 3 8 7 6 8 6 6 5 5 2 2 9 5 2 9 8 5 9 6 6 3 5 6 5 6 13 22 21 25 22 11 8
33 16 5 3 5 5 5 3 6 3 5 10 8 4 4 5 6 6 10 9 10 11 8 6 7 3 6 4 9 4 3 8 4 1 3 4 5 6 7 3 8 12 7 8 12
22 12 6 10 7 5 5 4 4 2 8 3 2 1 2 3 2 2 6 8 9 13 9 7 4 8 9 3 4 10 4 2 3 3 5 5 3 5 6 8 7 9 14 12 15
7 4 6 11 11 5 2 5 5 7 6 7 7 6 5 4 3 0 6 7 6 6 13 8 6 12 1 5 8 1 1 3 5 5 5 2 6 6 13 16 15 11 10 11 13
6 3 4 6 3 1 1 3 5 11 10 8 5 8 5 1 3 5 6 3 3 2 6 11 7 11 12 7 9 8 11 7 5 7 4 5 7 5 13 18 14 12 11 8 9
2 3 7 1 1 3 7 6 4 7 7 6 5 5 2 3 2 4 3 5 7 5 4 2 4 4 8 7 3 4 6 5 4 4 6 4 7 4 4 10 14 13 10 9 10
2 4 4 5 2 4 6 5 8 7 5 6 4 7 9 8 1 5 3 3 7 9 10 0 4 8 13 9 6 4 5 9 8 5 6 7 6 2 9 13 9 8 8 8 9
3 2 1 4 4 5 3 4 6 7 4 7 6 5 4 5 7 7 6 7 6 7 9 4 2 3 6 7 7 5 5 4 4 7 7 15 9 8 15 17 16 10 10 14 14
3 4 5 3 4 6 2 3 4 9 6 8 6 12 6 5 2 4 5 4 4 8 8 6 4 7 6 5 4 3 8 6 3 5 5 6 6 8 6 6 10 16 15 15 14
7 6 3 4 5 3 1 6 9 11 7 9 7 3 3 3 3 4 4 6 6 2 4 2 3 5 5 7 5 9 5 6 5 3 5 5 10 6 6 16 17 15 17 17 16
Wind_Direction
4 1 356 348 343 336 329 323 326 327 324 320 322 332 336 327 320 292 236 203 109 149 148 126 123 155 18 340 67 298 4 224 140 118 186 117 123 126 125 133 144 133 134 162 135
5 357 350 343 337 331 327 320 324 319 318 311 319 334 339 338 324 259 208 185 184 242 158 164 164 143 250 271 128 78 312 232 185 140 145 133 130 132 130 144 118 127 130 129 133
1 356 351 345 339 331 324 317 320 314 310 309 323 332 339 341 307 253 219 212 212 209 212 260 269 163 163 168 169 234 285 321 164 147 139 135 105 105 120 136 145 146 147 139 133
2 357 353 348 342 331 321 315 314 309 301 311 328 333 336 360 141 271 200 196 198 192 200 225 216 45 137 262 141 329 240 351 182 158 142 130 127 126 131 145 143 144 152 149 161
5 1 356 349 340 329 322 320 315 306 295 315 331 341 1 19 248 247 205 195 188 191 208 278 215 149 97 290 353 221 311 46 58 100 105 105 106 115 124 140 147 153 160 169 176
7 3 359 353 345 338 338 333 335 302 283 312 340 349 39 312 212 201 176 177 186 212 282 175 285 285 84 221 124 1 293 79 43 96 111 110 118 111 143 145 154 164 177 178 183
6 5 2 358 351 348 349 350 350 309 284 311 5 39 46 235 217 163 177 187 194 213 278 274 286 131 129 140 338 294 89 20 31 357 55 103 86 130 155 149 161 177 188 187 180
4 3 3 1 355 352 349 351 356 334 320 289 43 120 244 287 210 169 174 218 224 247 250 277 308 339 110 33 344 69 68 63 325 5 1 103 109 158 170 151 179 187 196 183 159
2 360 1 2 355 352 358 16 13 31 333 309 103 120 267 125 185 199 186 213 241 261 262 266 360 122 57 108 356 27 260 102 339 7 147 57 131 182 185 171 190 185 192 153 152
2 358 356 359 351 342 339 334 324 66 116 272 269 333 271 223 206 206 213 226 252 300 325 185 99 121 82 102 192 222 150 251 187 228 116 160 214 197 194 182 192 179 155 156 161
356 355 354 353 346 336 335 318 35 26 194 197 206 244 273 234 179 192 200 234 357 37 242 315 82 215 205 199 169 160 187 187 191 340 133 236 179 227 182 195 186 183 174 170 168
352 351 349 349 337 325 306 127 213 236 300 221 238 249 264 274 172 235 195 146 121 231 327 352 264 251 312 274 160 168 182 235 137 201 142 96 270 220 176 196 191 187 180 175 170
350 349 345 347 339 2 271 251 309 302 331 289 193 194 219 155 181 213 147 170 166 227 236 191 252 326 281 147 148 199 186 210 114 165 33 91 296 237 228 223 194 196 184 180 175
348 346 346 346 75 331 270 348 329 253 48 277 186 255 151 129 263 191 177 146 235 206 236 235 265 258 298 205 169 156 220 223 142 146 213 164 256 252 205 183 193 195 192 186 179
345 344 339 337 306 305 316 321 338 72 33 156 185 206 159 154 208 218 177 102 198 234 99 245 295 301 279 238 167 223 181 191 174 183 159 196 62 268 179 198 214 191 205 197 186
340 342 331 319 299 289 337 334 355 50 281 216 165 160 122 222 262 36 146 115 183 235 238 245 247 214 228 275 242 302 45 31 57 169 325 166 176 268 187 197 182 182 198 204 194
338 338 318 276 235 324 338 21 48 129 331 204 195 138 162 189 233 145 164 202 177 66 314 328 294 284 216 281 338 74 57 355 349 348 218 282 162 237 206 179 184 172 198 203 186
337 335 310 264 252 303 18 54 136 250 288 343 71 91 176 175 239 178 154 193 264 126 113 218 315 210 248 193 189 177 149 157 202 225 267 336 285 270 171 177 184 183 201 202 191
338 338 314 155 178 191 73 89 207 223 19 346 347 97 285 234 187 167 191 199 203 174 173 181 263 299 296 200 158 238 191 185 149 98 31 269 302 357 19 71 159 183 243 202 226
338 334 280 145 160 104 76 227 260 18 354 13 15 263 161 307 154 172 198 205 212 191 167 222 269 250 267 105 309 153 173 79 16 210 215 278 226 213 218 219 186 181 198 214 190
3 20 352 162 174 54 150 235 294 303 343 347 292 260 233 195 141 59 261 290 237 249 184 173 160 251 94 182 193 71 196 77 126 145 170 220 260 228 200 195 192 194 191 168 164
357 46 78 9 48 63 188 230 305 308 312 257 230 248 233 55 196 199 221 188 316 255 212 215 183 233 238 228 181 181 195 150 145 259 212 162 261 272 213 184 178 179 172 176 164
18 275 349 271 137 334 326 313 331 346 336 350 315 349 307 148 1 179 235 276 309 339 306 184 243 225 299 340 19 179 193 168 123 87 232 173 266 339 140 173 185 168 173 164 161
42 15 331 32 91 74 0 328 333 318 292 14 306 357 0 336 159 272 331 324 21 13 342 24 177 199 222 211 173 195 216 194 151 127 222 217 258 225 158 180 188 171 168 152 121
39 338 29 325 341 347 351 270 331 332 344 1 337 334 310 303 336 6 347 335 353 17 0 60 288 274 263 191 164 190 226 273 185 228 168 246 192 222 182 182 186 147 140 125 122
60 29 346 290 308 355 349 294 315 337 345 322 358 328 21 69 101 310 358 7 285 344 9 356 305 9 312 264 199 220 192 206 224 241 229 262 237 235 161 81 143 156 149 138 137
8 350 92 285 326 11 308 337 316 331 304 330 308 323 347 158 205 227 225 246 241 343 336 29 27 3 288 329 310 258 191 186 189 207 190 249 239 162 185 171 175 171 159 154 149